SIA297 WSSS-NZCH

Flight info

Callsign SIA297
Flight time N/A
Altitude 37000
Route IDBUD1A IDBUD T24 SURGA M635 BLI/N0487F390 M635 ATMAP A576 APOMA/N0479F410 A576 TESAT M636 PLUGA N750 VANDA
Aircraft A359/H-SDE2E3GHIJ3J4J5LM1ORWXY/LB1D1

Departure

Time N/A
Airport Singapore Changi Airport (WSSS)

Arrival

Time 2026-05-03 21:21
Airport Christchurch International Airport (NZCH)
Time Latitude Longitude Altitude Speed Heading
2026-05-03 20:15 -40.23620 163.85407 37476 ft 487 kts 121°
2026-05-03 20:15 -40.26953 163.93065 37486 ft 487 kts 121°
2026-05-03 20:16 -40.30306 164.00787 37476 ft 488 kts 121°
2026-05-03 20:16 -40.33655 164.08519 37495 ft 488 kts 121°
2026-05-03 20:17 -40.37002 164.16266 37496 ft 488 kts 121°
2026-05-03 20:17 -40.40338 164.24007 37499 ft 488 kts 121°
2026-05-03 20:18 -40.43645 164.31702 37497 ft 487 kts 121°
2026-05-03 20:18 -40.46972 164.39461 37495 ft 487 kts 121°
2026-05-03 20:19 -40.50292 164.47223 37501 ft 487 kts 121°
2026-05-03 20:19 -40.53585 164.54941 37499 ft 487 kts 121°
2026-05-03 20:20 -40.56896 164.62723 37491 ft 488 kts 121°
2026-05-03 20:20 -40.60201 164.70511 37500 ft 487 kts 121°
2026-05-03 20:21 -40.63499 164.78304 37500 ft 487 kts 121°
2026-05-03 20:21 -40.66784 164.86086 37501 ft 487 kts 121°
2026-05-03 20:22 -40.70048 164.93834 37514 ft 487 kts 120°
2026-05-03 20:22 -40.73325 165.01636 37521 ft 486 kts 120°
2026-05-03 20:23 -40.76598 165.09449 37508 ft 486 kts 120°
2026-05-03 20:23 -40.79860 165.17254 37508 ft 485 kts 120°
2026-05-03 20:24 -40.83114 165.25062 37516 ft 486 kts 120°
2026-05-03 20:24 -40.86346 165.32837 37516 ft 486 kts 120°
2026-05-03 20:25 -40.89598 165.40679 37520 ft 487 kts 120°
2026-05-03 20:25 -40.92843 165.48526 37519 ft 486 kts 120°
2026-05-03 20:26 -40.96083 165.56382 37525 ft 486 kts 120°
2026-05-03 20:26 -40.99297 165.64194 37525 ft 486 kts 120°
2026-05-03 20:27 -41.02524 165.72059 37525 ft 486 kts 120°
2026-05-03 20:27 -41.05747 165.79934 37531 ft 486 kts 120°
2026-05-03 20:28 -41.08960 165.87809 37531 ft 485 kts 120°
2026-05-03 20:28 -41.12145 165.95632 37536 ft 485 kts 120°
2026-05-03 20:29 -41.15354 166.03537 37534 ft 486 kts 120°
2026-05-03 20:29 -41.18559 166.11450 37537 ft 487 kts 120°
2026-05-03 20:30 -41.21736 166.19318 37535 ft 487 kts 120°
2026-05-03 20:30 -41.24929 166.27246 37542 ft 486 kts 120°
2026-05-03 20:31 -41.28114 166.35176 37540 ft 486 kts 120°
2026-05-03 20:31 -41.31292 166.43107 37543 ft 486 kts 120°
2026-05-03 20:32 -41.34445 166.50999 37548 ft 486 kts 120°
2026-05-03 20:32 -41.37610 166.58943 37547 ft 486 kts 120°
2026-05-03 20:33 -41.40768 166.66889 37546 ft 485 kts 120°
2026-05-03 20:33 -41.43919 166.74842 37551 ft 486 kts 120°
2026-05-03 20:34 -41.47060 166.82787 37552 ft 487 kts 119°
2026-05-03 20:34 -41.50212 166.90786 37550 ft 487 kts 119°
2026-05-03 20:35 -41.53351 166.98770 37554 ft 486 kts 119°
2026-05-03 20:35 -41.56484 167.06762 37554 ft 486 kts 119°
2026-05-03 20:36 -41.59589 167.14706 37556 ft 486 kts 119°
2026-05-03 20:36 -41.62707 167.22705 37557 ft 486 kts 119°
2026-05-03 20:37 -41.65821 167.30715 37558 ft 485 kts 119°
2026-05-03 20:37 -41.68926 167.38724 37565 ft 485 kts 119°
2026-05-03 20:38 -41.72000 167.46674 37572 ft 485 kts 119°
2026-05-03 20:38 -41.75096 167.54702 37567 ft 486 kts 119°
2026-05-03 20:39 -41.78188 167.62744 37567 ft 486 kts 119°
2026-05-03 20:39 -41.81276 167.70796 37570 ft 485 kts 119°
2026-05-03 20:40 -41.84351 167.78838 37570 ft 485 kts 119°
2026-05-03 20:40 -41.87403 167.86841 37573 ft 485 kts 118°
2026-05-03 20:41 -41.90466 167.94894 37573 ft 485 kts 118°
2026-05-03 20:41 -41.93525 168.02961 37573 ft 484 kts 118°
2026-05-03 20:42 -41.96578 168.11033 37575 ft 484 kts 118°
2026-05-03 20:42 -41.99600 168.19049 37575 ft 484 kts 118°
2026-05-03 20:43 -42.02643 168.27139 37582 ft 485 kts 118°
2026-05-03 20:43 -42.05684 168.35250 37581 ft 485 kts 118°
2026-05-03 20:44 -42.08715 168.43355 37581 ft 485 kts 118°
2026-05-03 20:44 -42.11739 168.51466 37581 ft 485 kts 118°
2026-05-03 20:45 -42.14736 168.59525 37579 ft 484 kts 118°
2026-05-03 20:45 -42.17748 168.67651 37581 ft 484 kts 118°
2026-05-03 20:46 -42.20754 168.75781 37578 ft 484 kts 118°
2026-05-03 20:46 -42.23749 168.83908 37575 ft 484 kts 118°
2026-05-03 20:47 -42.26721 168.91993 37578 ft 484 kts 118°
2026-05-03 20:47 -42.29708 169.00142 37576 ft 484 kts 118°
2026-05-03 20:48 -42.32685 169.08286 37572 ft 484 kts 118°
2026-05-03 20:48 -42.35660 169.16449 37573 ft 484 kts 118°
2026-05-03 20:49 -42.38606 169.24558 37575 ft 484 kts 118°
2026-05-03 20:49 -42.41568 169.32734 37575 ft 484 kts 118°
2026-05-03 20:50 -42.44075 169.41203 37572 ft 485 kts 111°
2026-05-03 20:50 -42.46403 169.49765 37573 ft 484 kts 112°
2026-05-03 20:51 -42.48716 169.58257 37576 ft 484 kts 112°
2026-05-03 20:51 -42.51044 169.66812 37575 ft 484 kts 111°
2026-05-03 20:52 -42.53366 169.75371 37571 ft 484 kts 111°
2026-05-03 20:52 -42.55671 169.83896 37099 ft 479 kts 111°
2026-05-03 20:52 -42.56820 169.88154 36279 ft 482 kts 111°
2026-05-03 20:53 -42.57957 169.92375 35609 ft 483 kts 111°
2026-05-03 20:53 -42.59105 169.96646 35016 ft 481 kts 111°
2026-05-03 20:53 -42.60246 170.00900 34516 ft 478 kts 111°
2026-05-03 20:53 -42.61377 170.05122 33966 ft 474 kts 111°
2026-05-03 20:54 -42.62496 170.09308 33437 ft 470 kts 111°
2026-05-03 20:54 -42.64703 170.17587 32437 ft 462 kts 111°
2026-05-03 20:54 -42.65789 170.21669 32039 ft 456 kts 111°
2026-05-03 20:55 -42.66861 170.25707 31562 ft 452 kts 111°
2026-05-03 20:55 -42.67923 170.29712 31083 ft 449 kts 111°
2026-05-03 20:55 -42.68961 170.33634 30621 ft 445 kts 111°
2026-05-03 20:55 -42.70004 170.37580 30066 ft 442 kts 111°
2026-05-03 20:56 -42.71037 170.41496 29514 ft 439 kts 110°
2026-05-03 20:56 -42.72064 170.45391 28979 ft 436 kts 110°
2026-05-03 20:56 -42.73080 170.49255 28461 ft 433 kts 110°
2026-05-03 20:56 -42.74089 170.53099 27954 ft 430 kts 110°
2026-05-03 20:57 -42.75090 170.56916 27486 ft 426 kts 110°
2026-05-03 20:57 -42.76077 170.60689 27023 ft 422 kts 110°
2026-05-03 20:57 -42.77059 170.64447 26526 ft 420 kts 110°
2026-05-03 20:57 -42.78019 170.68124 26030 ft 418 kts 110°
2026-05-03 20:58 -42.78988 170.71844 25561 ft 415 kts 110°
2026-05-03 20:58 -42.79949 170.75537 25100 ft 413 kts 110°
2026-05-03 20:58 -42.80904 170.79215 24630 ft 410 kts 110°
2026-05-03 20:58 -42.81850 170.82863 24192 ft 408 kts 110°
2026-05-03 20:59 -42.82791 170.86496 23644 ft 405 kts 110°
2026-05-03 20:59 -42.83721 170.90097 23120 ft 402 kts 110°
2026-05-03 20:59 -42.84647 170.93682 22623 ft 399 kts 110°
2026-05-03 20:59 -42.85551 170.97192 22139 ft 396 kts 110°
2026-05-03 21:00 -42.86458 171.00715 21638 ft 393 kts 110°
2026-05-03 21:00 -42.87069 171.03089 21287 ft 392 kts 109°
2026-05-03 21:00 -42.88256 171.07714 20619 ft 389 kts 109°
2026-05-03 21:00 -42.89148 171.11195 20055 ft 389 kts 109°
2026-05-03 21:01 -42.90038 171.14675 19601 ft 386 kts 109°
2026-05-03 21:01 -42.90916 171.18112 19184 ft 382 kts 109°
2026-05-03 21:01 -42.91778 171.21491 18683 ft 381 kts 109°
2026-05-03 21:01 -42.92645 171.24896 18136 ft 379 kts 109°
2026-05-03 21:02 -42.93509 171.28290 17614 ft 377 kts 109°
2026-05-03 21:02 -42.94366 171.31670 17030 ft 377 kts 109°
2026-05-03 21:02 -42.95220 171.35038 16581 ft 373 kts 109°
2026-05-03 21:02 -42.96061 171.38356 16144 ft 369 kts 110°
2026-05-03 21:03 -42.96901 171.41668 15570 ft 369 kts 110°
2026-05-03 21:03 -42.97738 171.44961 15120 ft 365 kts 109°
2026-05-03 21:03 -42.98556 171.48203 14746 ft 359 kts 109°
2026-05-03 21:03 -42.99354 171.51385 14264 ft 358 kts 109°
2026-05-03 21:04 -43.00109 171.54621 13656 ft 358 kts 103°
2026-05-03 21:04 -43.00345 171.57998 13138 ft 356 kts 93°
2026-05-03 21:04 -43.00952 171.61233 12572 ft 352 kts 119°
2026-05-03 21:04 -43.02413 171.63868 12081 ft 346 kts 136°
2026-05-03 21:05 -43.04072 171.66218 11593 ft 343 kts 136°
2026-05-03 21:05 -43.05688 171.68594 11142 ft 339 kts 135°
2026-05-03 21:05 -43.07246 171.70994 10597 ft 338 kts 133°
2026-05-03 21:05 -43.08769 171.73433 10158 ft 334 kts 133°
2026-05-03 21:06 -43.10232 171.75822 10001 ft 319 kts 133°
2026-05-03 21:06 -43.11587 171.78054 10019 ft 301 kts 132°
2026-05-03 21:06 -43.12843 171.80305 10014 ft 298 kts 125°
2026-05-03 21:06 -43.13737 171.82863 10002 ft 300 kts 112°
2026-05-03 21:07 -43.14436 171.85565 10007 ft 301 kts 111°
2026-05-03 21:07 -43.15117 171.88275 10007 ft 301 kts 111°
2026-05-03 21:07 -43.15803 171.90985 10002 ft 301 kts 111°
2026-05-03 21:07 -43.16492 171.93700 10007 ft 306 kts 111°
2026-05-03 21:08 -43.17202 171.96502 10002 ft 310 kts 111°
2026-05-03 21:08 -43.17898 171.99253 10012 ft 303 kts 111°
2026-05-03 21:08 -43.18577 172.01929 9998 ft 300 kts 111°
2026-05-03 21:08 -43.19259 172.04632 10007 ft 301 kts 111°
2026-05-03 21:09 -43.19942 172.07332 10003 ft 300 kts 111°
2026-05-03 21:09 -43.20600 172.10049 10008 ft 301 kts 107°
2026-05-03 21:09 -43.21052 172.12849 9975 ft 300 kts 102°
2026-05-03 21:09 -43.21417 172.15632 9619 ft 296 kts 101°
2026-05-03 21:10 -43.21773 172.18407 9197 ft 296 kts 101°
2026-05-03 21:10 -43.22131 172.21178 8795 ft 294 kts 101°
2026-05-03 21:10 -43.22488 172.23927 8408 ft 292 kts 101°
2026-05-03 21:10 -43.22842 172.26658 8027 ft 290 kts 101°
2026-05-03 21:11 -43.23190 172.29340 7649 ft 288 kts 101°
2026-05-03 21:11 -43.23539 172.32035 7274 ft 286 kts 101°
2026-05-03 21:11 -43.23886 172.34716 6899 ft 284 kts 101°
2026-05-03 21:11 -43.24230 172.37373 6490 ft 282 kts 101°
2026-05-03 21:12 -43.24575 172.40018 6089 ft 281 kts 101°
2026-05-03 21:12 -43.24912 172.42616 5886 ft 272 kts 100°
2026-05-03 21:12 -43.25234 172.45114 5733 ft 261 kts 100°
2026-05-03 21:12 -43.25542 172.47510 5597 ft 250 kts 100°
2026-05-03 21:13 -43.25838 172.49814 5449 ft 240 kts 100°
2026-05-03 21:13 -43.26120 172.52012 5210 ft 236 kts 100°
2026-05-03 21:13 -43.26404 172.54216 4920 ft 233 kts 100°
2026-05-03 21:13 -43.26682 172.56388 4639 ft 230 kts 99°
2026-05-03 21:14 -43.26959 172.58546 4329 ft 229 kts 99°
2026-05-03 21:14 -43.27232 172.60685 4042 ft 227 kts 99°
2026-05-03 21:14 -43.27504 172.62809 3760 ft 225 kts 99°
2026-05-03 21:14 -43.27869 172.64868 3567 ft 218 kts 109°
2026-05-03 21:15 -43.28575 172.66648 3470 ft 207 kts 126°
2026-05-03 21:15 -43.29468 172.68117 3379 ft 194 kts 133°
2026-05-03 21:15 -43.30469 172.69263 3184 ft 188 kts 147°
2026-05-03 21:15 -43.31650 172.69999 2908 ft 185 kts 163°
2026-05-03 21:16 -43.32915 172.70245 2636 ft 181 kts 180°
2026-05-03 21:16 -43.34140 172.69984 2382 ft 177 kts 199°
2026-05-03 21:16 -43.35168 172.69104 2097 ft 173 kts 221°
2026-05-03 21:16 -43.36067 172.68014 2004 ft 173 kts 221°
2026-05-03 21:17 -43.36989 172.66944 1996 ft 173 kts 220°
2026-05-03 21:17 -43.37602 172.66241 1996 ft 173 kts 220°
2026-05-03 21:17 -43.38825 172.64840 1996 ft 172 kts 220°
2026-05-03 21:17 -43.39739 172.63790 1995 ft 167 kts 220°
2026-05-03 21:18 -43.40576 172.62823 1899 ft 149 kts 220°
2026-05-03 21:18 -43.41344 172.61935 1720 ft 140 kts 220°
2026-05-03 21:18 -43.42086 172.61078 1524 ft 139 kts 220°
2026-05-03 21:18 -43.42830 172.60219 1331 ft 140 kts 220°
2026-05-03 21:19 -43.43575 172.59358 1128 ft 140 kts 220°
2026-05-03 21:19 -43.44318 172.58500 950 ft 139 kts 220°
2026-05-03 21:19 -43.45057 172.57646 766 ft 138 kts 220°
2026-05-03 21:19 -43.45780 172.56810 577 ft 137 kts 221°
2026-05-03 21:20 -43.46505 172.55972 390 ft 136 kts 221°
2026-05-03 21:20 -43.47222 172.55136 212 ft 135 kts 222°
2026-05-03 21:20 -43.47922 172.54326 111 ft 123 kts 220°
2026-05-03 21:20 -43.48409 172.53766 113 ft 50 kts 219°
2026-05-03 21:21 -43.48486 172.53680 113 ft 0 kts 222°
2026-05-03 21:21 -43.48524 172.53633 113 ft 11 kts 221°
2026-05-03 21:21 -43.48579 172.53567 115 ft 10 kts 217°
2026-05-03 21:22 -43.48633 172.53510 117 ft 11 kts 218°
2026-05-03 21:22 -43.48700 172.53435 117 ft 14 kts 219°
2026-05-03 21:22 -43.48775 172.53369 116 ft 4 kts 179°
2026-05-03 21:22 -43.48810 172.53387 116 ft 7 kts 143°
2026-05-03 21:23 -43.48853 172.53454 116 ft 11 kts 131°
2026-05-03 21:23 -43.48888 172.53550 116 ft 11 kts 91°
2026-05-03 21:23 -43.48854 172.53601 115 ft 8 kts 37°
2026-05-03 21:23 -43.48804 172.53657 118 ft 10 kts 40°
2026-05-03 21:24 -43.48743 172.53728 116 ft 13 kts 39°
2026-05-03 21:24 -43.48657 172.53824 112 ft 19 kts 40°
2026-05-03 21:24 -43.48579 172.53913 113 ft 12 kts 41°
2026-05-03 21:24 -43.48558 172.54002 111 ft 9 kts 91°
2026-05-03 21:25 -43.48580 172.54083 112 ft 8 kts 152°
2026-05-03 21:25 -43.48618 172.54069 112 ft 0 kts 208°